This is the latest recevied weather packets stored in our database for station/object SR5NLK-1. If no packets are shown the sender has not sent any weather packets the latest 10 day(s).
| Time | Temp. | Humidity | Pressure | Rain* | Wind** | Luminosity | Snow |
|---|---|---|---|---|---|---|---|
| 1787556007 | 18.89° C | 64% | 1037.1 hPa | 0 mm | - | - | - |
| 1787555707 | 18.89° C | 64% | 1087 hPa | 0 mm | - | - | - |
| 1787555441 | 18.89° C | 64% | 1056.4 hPa | 0 mm | - | - | - |
| 1787555407 | 18.89° C | 64% | 1056.4 hPa | 0 mm | - | - | - |
| 1787555168 | 18.89° C | 65% | 1046.9 hPa | 0 mm | - | - | - |
| 1787555107 | 18.89° C | 65% | 1046.9 hPa | 0 mm | - | - | - |
| 1787554807 | 18.89° C | 66% | 1075.2 hPa | 0 mm | - | - | - |
| 1787554506 | 18.33° C | 65% | 1065.8 hPa | 0 mm | - | - | - |
| 1787554207 | 18.89° C | 66% | 1059.5 hPa | 0 mm | - | - | - |
| 1787553907 | 18.33° C | 67% | 1078.4 hPa | 0 mm | - | - | - |
| 1787553607 | 18.33° C | 67% | 1056.4 hPa | 0 mm | - | - | - |
| 1787553307 | 17.78° C | 68% | 1075.3 hPa | 0 mm | - | - | - |
| 1787552707 | 17.78° C | 69% | 1072.1 hPa | 0 mm | - | - | - |
| 1787552526 | 17.22° C | 69% | 1072.1 hPa | 0 mm | - | - | - |
| 1787552407 | 17.22° C | 69% | 1068.9 hPa | 0 mm | - | - | - |
| 1787551808 | 17.22° C | 71% | 1068.9 hPa | 0 mm | - | - | - |
| 1787551578 | 17.22° C | 72% | 1032.6 hPa | 0 mm | - | - | - |
| 1787551507 | 17.22° C | 72% | 1032.6 hPa | 0 mm | - | - | - |
| 1787550907 | 16.11° C | 74% | 1062.7 hPa | 0 mm | - | - | - |
| 1787550607 | 16.11° C | 74% | 1050.1 hPa | 0 mm | - | - | - |
| 1787550546 | 16.11° C | 75% | 1069 hPa | 0 mm | - | - | - |
| 1787550307 | 15.56° C | 75% | 1033.4 hPa | 0 mm | - | - | - |
| 1787550007 | 15.56° C | 76% | 1084.9 hPa | 0 mm | - | - | - |
| 1787549744 | 15° C | 76% | 1053.2 hPa | 0 mm | - | - | - |
| 1787549707 | 15° C | 76% | 1053.2 hPa | 0 mm | - | - | - |
* Rain latest hour (hover to see other rain measurements)
** Current wind speed in m/s (hover to see current wind gust speed)